FW0887 Weather Reports


Display with metric or nautical units.
time (UTC)temp
F
wind
direction
speed
MPH
gust
MPH
rain 1hr
in
rain 24hr
in
rain mn
in
humidity
%
barometer
mb
20260502163100 75 238 2.0 5.0 0.00 0.00 0.00 35 1017.8
20260502161556 76 232 1.0 5.0 0.00 0.00 0.00 32 1017.9
20260502161249 78 225 2.0 3.0 0.00 0.00 0.00 33 1018.7
20260502151549 79 236 3.0 5.0 0.00 0.00 0.00 30 1018.5
20260502151446 79 225 4.0 6.0 0.00 0.00 0.00 29 1019.5
20260502123024 76 192 2.0 6.0 0.00 0.00 0.00 32 1020.9
20260502121514 76 180 3.0 10.0 0.00 0.00 0.00 32 1021.0
20260502121231 76 225 4.0 7.0 0.00 0.00 0.00 33 1021.9
20260502114509 75 199 3.0 10.0 0.00 0.00 0.00 33 1021.4
20260502113006 75 237 3.0 6.0 0.00 0.00 0.00 30 1021.7
20260502111503 74 210 1.0 8.0 0.00 0.00 0.00 38 1022.0
20260502111245 74 225 5.0 8.0 0.00 0.00 0.00 41 1023.0
20260502110001 74 254 3.0 9.0 0.00 0.00 0.00 42 1022.2
20260502104558 73 214 3.0 6.0 0.00 0.00 0.00 42 1022.4
20260502103055 73 117 1.0 6.0 0.00 0.00 0.00 41 1022.7
20260502101553 72 232 2.0 5.0 0.00 0.00 0.00 43 1022.8
20260502101256 72 225 3.0 6.0 0.00 0.00 0.00 43 1023.8
20260502091226 69 248 4.0 6.0 0.00 0.00 0.00 46 1024.2
20260502071513 58 107 0.0 2.0 0.00 0.00 0.00 62 1024.5
20260502071150 58 0.0 1.0 0.00 0.00 0.00 64 1025.3
20260502070010 57 107 0.0 1.0 0.00 0.00 0.00 63 1024.6
20260502064515 55 107 1.0 2.0 0.00 0.00 0.00 65 1024.6
20260502063005 52 107 0.0 1.0 0.00 0.00 0.00 71 1024.8
20260502061557 48 106 0.0 2.0 0.00 0.00 0.00 77 1024.8
20260502061139 46 0.0 0.0 0.00 0.00 0.00 85 1025.3
20260502060059 45 103 0.0 0.0 0.00 0.00 0.00 85 1024.9
20260502054606 40 108 0.0 0.0 0.00 0.00 0.00 87 1024.9
20260502053102 39 108 0.0 0.0 0.00 0.00 0.00 85 1025.0
20260502051554 38 108 0.0 0.0 0.00 0.00 0.00 85 1024.8
20260502050907 38 0.0 0.0 0.00 0.00 0.00 85 1024.9
20260502050052 38 108 0.0 0.0 0.00 0.00 0.00 85 1024.9
20260502044552 38 108 0.0 0.0 0.00 0.00 0.00 84 1024.9
20260502043054 38 108 0.0 0.0 0.00 0.00 0.00 84 1025.0
20260502041555 38 108 0.0 0.0 0.00 0.00 0.00 84 1024.9
20260502041207 39 0.0 0.0 0.00 0.00 0.00 84 1025.1
20260502040048 38 108 0.0 0.0 0.00 0.00 0.00 84 1025.0
20260502034550 38 108 0.0 0.0 0.00 0.00 0.00 84 1024.8
20260502033046 38 108 0.0 0.0 0.00 0.00 0.00 83 1024.9
20260502031544 39 108 0.0 0.0 0.00 0.00 0.00 82 1025.0
20260502031136 40 0.0 0.0 0.00 0.00 0.00 83 1025.3
20260502030048 39 108 0.0 0.0 0.00 0.00 0.00 83 1025.1
20260502024541 40 108 0.0 0.0 0.00 0.00 0.00 83 1025.2
20260502023041 40 108 0.0 0.0 0.00 0.00 0.00 83 1025.3
20260502021538 40 108 0.0 0.0 0.00 0.00 0.00 82 1025.2
20260502021107 41 0.0 0.0 0.00 0.00 0.00 81 1025.6
20260502020039 40 108 0.0 0.0 0.00 0.00 0.00 81 1025.4
20260502014533 41 108 0.0 0.0 0.00 0.00 0.00 81 1025.4
20260502013034 42 108 0.0 2.0 0.00 0.00 0.00 81 1025.4
20260502011529 42 108 0.0 1.0 0.00 0.00 0.00 80 1025.5
20260502011138 43 0.0 0.0 0.00 0.00 0.00 79 1026.1
20260502010026 42 108 0.0 1.0 0.00 0.00 0.00 79 1025.7
20260502004524 43 108 0.0 0.0 0.00 0.00 0.00 79 1025.8
20260502003022 43 108 0.0 1.0 0.00 0.00 0.00 79 1025.9
20260502001525 43 108 1.0 2.0 0.00 0.00 0.00 78 1026.0
20260502000906 45 0.0 0.0 0.00 0.00 0.00 76 1026.3
20260502000019 44 108 0.0 1.0 0.00 0.00 0.00 77 1026.1
20260501234515 45 108 0.0 1.0 0.00 0.00 0.00 76 1026.1
20260501233015 45 108 0.0 2.0 0.00 0.00 0.00 76 1026.0
20260501231513 45 108 0.0 0.0 0.00 0.00 0.00 75 1026.2
20260501231105 46 0.0 0.0 0.00 0.00 0.00 75 1026.5
20260501230011 46 108 0.0 2.0 0.00 0.00 0.00 75 1026.1
20260501224507 46 107 0.0 1.0 0.00 0.00 0.00 74 1026.2
20260501223006 47 107 0.0 1.0 0.00 0.00 0.00 73 1026.2
20260501221502 48 107 0.0 0.0 0.00 0.00 0.00 71 1026.3
20260501221053 49 0.0 0.0 0.00 0.00 0.00 70 1026.6
20260501220059 48 107 0.0 1.0 0.00 0.00 0.00 70 1026.3
20260501214558 49 107 0.0 1.0 0.00 0.00 0.00 68 1026.2
20260501213109 50 107 0.0 0.0 0.00 0.00 0.00 68 1026.2
20260501211610 50 107 0.0 2.0 0.00 0.00 0.00 67 1026.2
20260501211044 52 0.0 1.0 0.00 0.00 0.00 65 1026.6
20260501210057 51 107 0.0 1.0 0.00 0.00 0.00 65 1026.3
20260501204557 52 107 0.0 1.0 0.00 0.00 0.00 63 1026.2
20260501203054 53 107 0.0 2.0 0.00 0.00 0.00 62 1026.2
20260501201555 53 107 0.0 0.0 0.00 0.00 0.00 61 1026.3
20260501201055 55 0.0 0.0 0.00 0.00 0.00 59 1026.6
20260501200054 55 107 0.0 1.0 0.00 0.00 0.00 59 1026.3
20260501194601 56 105 0.0 1.0 0.00 0.00 0.00 57 1026.2
20260501193053 59 105 0.0 1.0 0.00 0.00 0.00 53 1026.2
20260501191554 60 106 0.0 2.0 0.00 0.00 0.00 47 1026.1
20260501191027 61 90 1.0 1.0 0.00 0.00 0.00 47 1026.3
20260501190052 61 101 0.0 2.0 0.00 0.00 0.00 47 1026.1
20260501184551 62 102 0.0 2.0 0.00 0.00 0.00 46 1026.0
20260501183052 64 103 0.0 2.0 0.00 0.00 0.00 43 1025.9
20260501181551 66 101 1.0 2.0 0.00 0.00 0.00 39 1025.9